"Timestamp","TZ","WindDir_Mean (deg)","WindSpd_Mean (km/h)","WindSpd_Min (km/h)","WindSpd_Max (km/h)","Temp_Mean (deg)","RH_Mean (%)","MSLP_Mean (hPa)","Rain_Acc (mm)","Rain_Intensity (mm/h)","Hail_Acc (hits/cm2)","Hail_Intensity (hits/cm2hr)","Solar_Mean (W/m2)"
2021/10/04 00:00:00.016,n,44,2.88,2.88,2.88,19.7,77.9,1006.42,0,0,0,0,0.028725
2021/10/04 00:01:00.000,n,68,1.8,1.8,2.16,19.7,78.3,1006.42,0,0,0,0,0.026093
2021/10/04 00:02:00.000,n,57,1.44,0.36,2.16,19.7,78.5,1006.42,0,0,0,0,0.031319
2021/10/04 00:03:00.000,n,69,1.08,1.08,1.44,19.6,79,1006.42,0,0,0,0,0.027847
2021/10/04 00:04:00.004,n,90,1.44,0.72,1.8,19.6,79.5,1006.42,0,0,0,0,0.02697
2021/10/04 00:05:00.002,n,23,0.36,0.36,0.72,19.6,79.5,1006.42,0,0,0,0,0.025215
2021/10/04 00:06:00.000,n,81,0.72,0.36,1.08,19.6,79.9,1006.42,0,0,0,0,0.025215
2021/10/04 00:07:00.000,n,48,1.8,1.8,1.8,19.6,80.6,1006.42,0,0,0,0,0.024376
2021/10/04 00:08:00.010,n,51,0.72,0.72,1.08,19.7,80.6,1006.42,0,0,0,0,0.026093
2021/10/04 00:09:00.008,n,182,0.36,0,0.72,19.6,80.6,1006.42,0,0,0,0,0.025215
2021/10/04 00:10:00.000,n,24,1.44,1.08,1.44,19.6,80.7,1006.42,0,0,0,0,0.026093
2021/10/04 00:11:00.001,n,284,0.72,0.36,1.08,19.6,81.1,1006.42,0,0,0,0,0.023499
2021/10/04 00:12:00.000,n,278,3.24,3.24,3.6,19.6,80.9,1006.32,0,0,0,0,0.024376
2021/10/04 00:13:00.000,n,265,1.08,0.36,1.44,19.6,80.9,1006.32,0,0,0,0,0.024376
2021/10/04 00:14:00.000,n,333,2.16,1.44,2.52,19.5,81.3,1006.42,0,0,0,0,0.023499
2021/10/04 00:15:00.008,n,269,3.24,2.88,3.6,19.5,80.8,1006.42,0,0,0,0,0.021744
2021/10/04 00:16:00.005,n,184,0.36,0.36,1.08,19.5,80.6,1006.42,0,0,0,0,0.021744
2021/10/04 00:17:00.002,n,256,5.4,5.04,6.48,19.4,80,1006.42,0,0,0,0,0.022621
2021/10/04 00:18:00.014,n,258,6.12,5.4,6.48,19.3,79.8,1006.42,0,0,0,0,0.026131
2021/10/04 00:19:00.000,n,261,3.96,2.88,5.4,19.3,80.6,1006.42,0,0,0,0,0.026131
2021/10/04 00:20:00.000,n,262,7.2,6.84,7.92,19.3,80.7,1006.42,0,0,0,0,0.02697
2021/10/04 00:21:00.000,n,262,4.68,4.32,5.04,19.2,80.3,1006.42,0,0,0,0,0.028725
2021/10/04 00:22:00.000,n,254,6.84,6.12,7.56,19.2,79.7,1006.42,0,0,0,0,0.024338
2021/10/04 00:23:00.000,n,258,4.32,3.6,4.68,19.1,79.6,1006.42,0,0,0,0,0.02697
2021/10/04 00:24:00.009,n,260,6.12,5.76,6.48,19,79.6,1006.42,0,0,0,0,0.026131
2021/10/04 00:25:00.005,n,259,5.4,5.04,6.12,19,79.5,1006.32,0,0,0,0,0.02697
2021/10/04 00:26:00.004,n,264,6.12,5.4,6.12,18.9,79.4,1006.32,0,0,0,0,0.02697
2021/10/04 00:27:00.002,n,267,6.84,6.48,7.2,18.8,79.1,1006.32,0,0,0,0,0.026131
2021/10/04 00:28:00.000,n,257,6.12,5.4,6.48,18.8,78.9,1006.32,0,0,0,0,0.02697
2021/10/04 00:29:00.000,n,260,7.56,7.2,7.92,18.7,78.6,1006.32,0,0,0,0,0.025215
2021/10/04 00:30:00.000,n,261,6.48,6.48,6.84,18.7,78.3,1006.32,0,0,0,0,0.027847
2021/10/04 00:31:00.006,n,262,6.12,5.76,6.12,18.7,78.2,1006.32,0,0,0,0,0.025215
2021/10/04 00:32:00.004,n,263,6.48,6.12,6.48,18.7,78.2,1006.32,0,0,0,0,0.021744
2021/10/04 00:33:00.002,n,263,6.12,5.76,6.12,18.7,77.7,1006.32,0,0,0,0,0.020905
2021/10/04 00:34:00.000,n,262,5.76,5.76,6.12,18.6,77.4,1006.32,0,0,0,0,0.024338
2021/10/04 00:35:00.013,n,261,4.68,4.32,5.04,18.6,77.6,1006.22,0,0,0,0,0.022621
2021/10/04 00:36:00.010,n,259,6.12,5.76,6.12,18.6,77.1,1006.22,0,0,0,0,0.020905
2021/10/04 00:37:00.000,n,262,5.04,4.68,5.4,18.6,76.6,1006.22,0,0,0,0,0.023499
2021/10/04 00:38:00.000,n,262,4.68,4.32,5.04,18.6,76.2,1006.12,0,0,0,0,0.02697
2021/10/04 00:39:00.000,n,258,4.32,2.88,4.68,18.6,75.8,1006.12,0,0,0,0,0.024376
2021/10/04 00:40:00.000,n,262,4.32,3.96,4.68,18.6,75.6,1006.12,0,0,0,0,0.02697
2021/10/04 00:41:00.008,n,252,2.88,1.44,3.6,18.5,75.3,1006.12,0,0,0,0,0.02697
2021/10/04 00:42:00.006,n,259,2.16,1.08,3.24,18.6,75.2,1006.12,0,0,0,0,0.026093
2021/10/04 00:43:00.003,n,261,2.16,1.8,2.52,18.6,74.8,1006.22,0,0,0,0,0.025253
2021/10/04 00:44:00.000,n,261,2.52,2.16,2.52,18.6,74.7,1006.22,0,0,0,0,0.024376
2021/10/04 00:45:00.014,n,251,2.52,2.52,2.88,18.6,74.2,1006.12,0,0,0,0,0.024376
2021/10/04 00:46:00.000,n,249,3.96,3.24,4.32,18.5,73.8,1006.12,0,0,0,0,0.025253
2021/10/04 00:47:00.000,n,263,3.24,2.88,3.6,18.5,73.5,1006.12,0,0,0,0,0.022621
2021/10/04 00:48:00.000,n,242,3.24,2.88,3.24,18.5,73.3,1006.12,0,0,0,0,0.023499
2021/10/04 00:49:00.000,n,253,3.24,2.88,3.6,18.5,73.1,1006.12,0,0,0,0,0.018272
2021/10/04 00:50:00.008,n,248,2.88,2.88,3.24,18.5,72.4,1006.02,0,0,0,0,0.020905
2021/10/04 00:51:00.005,n,256,2.52,2.52,2.88,18.5,72.2,1006.02,0,0,0,0,0.023499
2021/10/04 00:52:00.002,n,258,2.16,1.8,2.16,18.5,72.2,1006.02,0,0,0,0,0.020027
2021/10/04 00:53:00.000,n,272,2.52,2.16,2.88,18.5,72.3,1006.02,0,0,0,0,0.020027
2021/10/04 00:54:00.014,n,245,1.44,1.08,2.16,18.6,72.4,1006.02,0,0,0,0,0.020905
2021/10/04 00:55:00.000,n,257,2.88,2.88,3.24,18.6,72.3,1006.02,0,0,0,0,0.020905
2021/10/04 00:56:00.000,n,260,2.88,2.88,3.24,18.6,71.9,1006.02,0,0,0,0,0.020027
2021/10/04 00:57:00.000,n,260,2.52,1.8,2.52,18.6,71.7,1006.02,0,0,0,0,0.018272
2021/10/04 00:58:00.003,n,275,2.16,1.8,2.52,18.6,71.7,1005.92,0,0,0,0,0.019112
2021/10/04 00:59:00.000,n,223,1.8,1.8,2.16,18.6,71.5,1005.92,0,0,0,0,0.015678
2021/10/04 01:00:00.000,n,165,1.8,1.44,2.52,18.6,71.8,1005.92,0,0,0,0,0.024376
2021/10/04 01:01:00.006,n,155,2.16,1.8,2.52,18.7,71.6,1005.92,0,0,0,0,0.029602
2021/10/04 01:02:00.005,n,147,1.8,1.8,2.52,18.7,71.5,1005.82,0,0,0,0,0.031319
2021/10/04 01:03:00.001,n,132,2.52,1.8,2.88,18.8,72.5,1005.82,0,0,0,0,0.027847
2021/10/04 01:04:00.000,n,154,3.6,3.6,3.96,18.9,75.6,1005.92,0,0,0,0,0.028725
2021/10/04 01:05:00.000,n,156,4.68,3.96,5.04,18.9,76.3,1005.92,0,0,0,0,0.029602
2021/10/04 01:06:00.000,n,133,3.6,2.88,3.96,18.9,77,1005.92,0,0,0,0,0.028725
2021/10/04 01:07:00.005,n,176,1.08,0.72,1.44,18.8,77.4,1005.82,0,0,0,0,0.028725
2021/10/04 01:08:00.002,n,189,1.44,1.08,2.16,18.8,78.1,1005.82,0,0,0,0,0.029602
2021/10/04 01:09:00.000,n,197,2.52,2.16,2.52,18.8,78.5,1005.82,0,0,0,0,0.029602
2021/10/04 01:10:00.000,n,214,1.8,1.8,2.16,18.8,78.6,1005.82,0,0,0,0,0.025215
2021/10/04 01:11:00.010,n,275,1.08,1.08,1.08,18.7,78.7,1005.92,0,0,0,0,0.022583
2021/10/04 01:12:00.007,n,335,1.44,1.08,1.44,18.7,78.8,1005.92,0,0,0,0,0.025215
2021/10/04 01:13:00.000,n,166,1.08,0.72,1.44,18.7,78.8,1005.92,0,0,0,0,0.022583
2021/10/04 01:14:00.000,n,237,0.36,0,0.72,18.7,78.9,1005.92,0,0,0,0,0.024376
2021/10/04 01:15:00.000,n,165,2.52,2.52,3.24,18.7,79.1,1005.92,0,0,0,0,0.021744
2021/10/04 01:16:00.000,n,143,3.96,3.96,4.32,18.6,78.8,1005.92,0,0,0,0,0.022583
2021/10/04 01:17:00.008,n,140,3.24,2.88,3.6,18.6,78.8,1005.92,0,0,0,0,0.024376
2021/10/04 01:18:00.006,n,242,0.72,0.36,1.44,18.5,78.5,1005.92,0,0,0,0,0.02697
2021/10/04 01:19:00.003,n,83,1.44,1.08,2.16,18.4,78.7,1005.92,0,0,0,0,0.021744
2021/10/04 01:20:00.001,n,78,0.72,0.36,1.08,18.4,78.8,1005.92,0,0,0,0,0.020027
2021/10/04 01:21:00.014,n,168,3.6,2.16,3.96,18.3,76.8,1005.92,0,0,0,0,0.022583
2021/10/04 01:22:00.000,n,194,1.44,1.08,1.8,18.1,75.5,1005.82,0,0,0,0,0.020866
2021/10/04 01:23:00.000,n,195,0.72,0.36,1.8,18,76.6,1005.82,0,0,0,0,0.020866
2021/10/04 01:24:00.000,n,172,2.16,1.8,2.52,18,76.7,1005.82,0,0,0,0,0.018234
2021/10/04 01:25:00.002,n,195,3.24,2.52,3.24,17.9,75,1005.82,0,0,0,0,0.01915
2021/10/04 01:26:00.000,n,184,3.24,2.88,3.6,17.9,74.9,1005.82,0,0,0,0,0.020866
2021/10/04 01:27:00.000,n,161,3.24,2.52,3.96,17.8,74.6,1005.82,0,0,0,0,0.018234
2021/10/04 01:28:00.010,n,177,1.44,0.72,1.8,17.8,74.7,1005.72,0,0,0,0,0.01915
2021/10/04 01:29:00.007,n,217,1.44,1.08,1.8,17.8,74.5,1005.72,0,0,0,0,0.017395
2021/10/04 01:30:00.005,n,116,1.44,1.08,1.8,17.8,74.1,1005.72,0,0,0,0,0.01915
2021/10/04 01:31:00.000,n,115,1.44,0.72,1.8,17.8,74.1,1005.72,0,0,0,0,0.016518
2021/10/04 01:32:00.000,n,147,1.08,1.08,1.44,17.8,73.7,1005.72,0,0,0,0,0.016518
2021/10/04 01:33:00.000,n,90,0.72,0.36,1.44,17.8,73.7,1005.72,0,0,0,0,0.026131
2021/10/04 01:34:00.000,n,198,2.52,2.16,3.24,17.8,73.5,1005.62,0,0,0,0,0.02697
2021/10/04 01:35:00.005,n,214,1.08,0.72,1.08,17.8,73.6,1005.62,0,0,0,0,0.029564
2021/10/04 01:36:00.003,n,232,1.08,0.72,1.44,17.8,73.5,1005.62,0,0,0,0,0.027847
2021/10/04 01:37:00.000,n,213,1.08,0.72,1.8,17.8,73.4,1005.62,0,0,0,0,0.024376
2021/10/04 01:38:00.012,n,224,1.08,0.36,1.08,17.8,73.3,1005.62,0,0,0,0,0.021782
2021/10/04 01:39:00.009,n,261,1.44,1.44,1.8,17.8,73.1,1005.62,0,0,0,0,0.025215
2021/10/04 01:40:00.000,n,280,1.8,1.44,1.8,17.7,72.8,1005.62,0,0,0,0,0.024376
2021/10/04 01:41:00.000,n,272,1.44,1.44,1.44,17.7,72.7,1005.62,0,0,0,0,0.022621
2021/10/04 01:42:00.000,n,256,1.8,1.44,1.8,17.7,72,1005.62,0,0,0,0,0.020866
2021/10/04 01:43:00.000,n,279,1.44,1.08,1.8,17.7,71.8,1005.62,0,0,0,0,0.02697
2021/10/04 01:44:00.000,n,279,2.16,1.8,2.16,17.6,71.6,1005.62,0,0,0,0,0.020866
2021/10/04 01:45:00.007,n,268,2.88,2.16,3.6,17.6,71.3,1005.62,0,0,0,0,0.020866
2021/10/04 01:46:00.004,n,263,3.24,3.24,3.6,17.6,70.8,1005.52,0,0,0,0,0.019989
2021/10/04 01:47:00.001,n,261,3.6,3.24,3.96,17.6,70.8,1005.52,0,0,0,0,0.020866
2021/10/04 01:48:00.015,n,267,2.16,1.8,2.88,17.6,70.9,1005.52,0,0,0,0,0.01915
2021/10/04 01:49:00.000,n,246,2.16,1.8,2.52,17.6,71,1005.52,0,0,0,0,0.020866
2021/10/04 01:50:00.000,n,268,0.72,0.36,1.08,17.6,71,1005.52,0,0,0,0,0.020866
2021/10/04 01:51:00.000,n,122,0.36,0.36,0.72,17.6,71.1,1005.52,0,0,0,0,0.020866
2021/10/04 01:52:00.004,n,138,0.72,0.36,1.08,17.7,71.9,1005.52,0,0,0,0,0.020866
2021/10/04 01:53:00.002,n,207,0.72,0,1.08,17.7,71.7,1005.52,0,0,0,0,0.018272
2021/10/04 01:54:00.000,n,320,0.36,0.36,0.72,17.7,71.7,1005.52,0,0,0,0,0.019989
2021/10/04 01:55:00.012,n,184,0.72,0.72,0.72,17.7,72.2,1005.52,0,0,0,0,0.021782
2021/10/04 01:56:00.009,n,188,0.72,0.36,1.08,17.7,72.2,1005.52,0,0,0,0,0.01564
2021/10/04 01:57:00.006,n,288,1.44,1.08,2.16,17.7,72.4,1005.52,0,0,0,0,0.026131
2021/10/04 01:58:00.000,n,273,2.16,1.8,2.52,17.7,72.7,1005.52,0,0,0,0,0.02964
2021/10/04 01:59:00.000,n,264,1.8,1.8,2.16,17.7,72.8,1005.52,0,0,0,0,0.02964
2021/10/04 02:00:00.000,n,285,1.8,1.44,2.16,17.7,72.9,1005.52,0,0,0,0,0.02964
2021/10/04 02:01:00.000,n,209,1.44,0.72,1.8,17.7,72.8,1005.52,0,0,0,0,0.030479
2021/10/04 02:02:00.005,n,49,1.08,0.36,1.44,17.7,73.5,1005.52,0,0,0,0,0.031357
2021/10/04 02:03:00.002,n,172,0.72,0.72,1.08,17.8,73.5,1005.52,0,0,0,0,0.027885
2021/10/04 02:04:00.000,n,355,0.36,0.36,1.08,17.8,73.6,1005.42,0,0,0,0,0.023499
2021/10/04 02:05:00.012,n,148,1.8,1.44,2.16,17.8,73.6,1005.42,0,0,0,0,0.02964
2021/10/04 02:06:00.010,n,100,0.36,0.36,0.72,17.8,73.7,1005.42,0,0,0,0,0.025291
2021/10/04 02:07:00.000,n,192,2.52,1.44,2.88,17.7,73.8,1005.42,0,0,0,0,0.025291
2021/10/04 02:08:00.000,n,179,0.36,0.36,1.08,17.7,73.8,1005.42,0,0,0,0,0.025291
2021/10/04 02:09:00.000,n,270,1.44,1.08,2.16,17.7,73.7,1005.42,0,0,0,0,0.026131
2021/10/04 02:10:00.000,n,239,2.16,1.08,3.24,17.6,72.3,1005.42,0,0,0,0,0.022659
2021/10/04 02:11:00.000,n,265,2.16,1.08,2.52,17.5,71.9,1005.42,0,0,0,0,0.027885
2021/10/04 02:12:00.010,n,301,2.52,2.16,2.88,17.5,71.9,1005.42,0,0,0,0,0.024414
2021/10/04 02:13:00.008,n,267,1.44,0.36,1.8,17.4,70.8,1005.42,0,0,0,0,0.022659
2021/10/04 02:14:00.005,n,265,2.16,1.44,2.88,17.4,70.7,1005.32,0,0,0,0,0.023499
2021/10/04 02:15:00.002,n,283,1.08,0.72,1.44,17.3,70.5,1005.32,0,0,0,0,0.020905
2021/10/04 02:16:00.000,n,257,2.52,2.16,2.88,17.3,70,1005.32,0,0,0,0,0.023499
2021/10/04 02:17:00.000,n,257,5.04,4.68,5.4,17.3,69.2,1005.32,0,0,0,0,0.017433
2021/10/04 02:18:00.000,n,273,2.52,2.16,2.88,17.3,69.1,1005.32,0,0,0,0,0.020905
2021/10/04 02:19:00.000,n,249,1.44,1.44,1.8,17.2,69.1,1005.32,0,0,0,0,0.021782
2021/10/04 02:20:00.006,n,251,1.08,0.72,1.44,17.2,69.4,1005.32,0,0,0,0,0.021782
2021/10/04 02:21:00.003,n,283,2.16,0.72,3.24,17.3,71.1,1005.32,0,0,0,0,0.020065
2021/10/04 02:22:00.000,n,285,2.52,2.16,2.88,17.3,70.6,1005.32,0,0,0,0,0.020905
2021/10/04 02:23:00.013,n,45,1.8,1.8,2.16,17.3,71.3,1005.22,0,0,0,0,0.020065
2021/10/04 02:24:00.011,n,167,0.72,0.72,0.72,17.4,71.2,1005.22,0,0,0,0,0.021782
2021/10/04 02:25:00.000,n,88,1.44,0.72,2.16,17.4,71.6,1005.22,0,0,0,0,0.020905
2021/10/04 02:26:00.000,n,124,1.08,1.08,1.44,17.4,71.7,1005.22,0,0,0,0,0.017433
2021/10/04 02:27:00.001,n,163,1.44,1.08,2.16,17.4,72.4,1005.22,0,0,0,0,0.020065
2021/10/04 02:28:00.000,n,153,3.6,2.16,3.96,17.4,73.3,1005.22,0,0,0,0,0.018311
2021/10/04 02:29:00.000,n,254,1.8,1.08,2.16,17.4,73.2,1005.22,0,0,0,0,0.016556
2021/10/04 02:30:00.009,n,213,1.08,1.08,1.44,17.3,73.4,1005.22,0,0,0,0,0.025253
2021/10/04 02:31:00.004,n,241,0.36,0.36,0.72,17.3,73.6,1005.22,0,0,0,0,0.02697
2021/10/04 02:32:00.001,n,206,1.8,1.08,2.16,17.2,73.9,1005.22,0,0,0,0,0.028763
2021/10/04 02:33:00.014,n,189,1.44,1.08,2.16,17.2,74.2,1005.22,0,0,0,0,0.031357
2021/10/04 02:34:00.000,n,89,0.72,0.36,0.72,17.2,74.7,1005.22,0,0,0,0,0.02697
2021/10/04 02:35:00.000,n,58,3.24,2.16,4.68,17.1,75.6,1005.22,0,0,0,0,0.029602
2021/10/04 02:36:00.005,n,147,5.04,3.6,6.12,17.1,76.5,1005.22,0,0,0,0,0.027847
2021/10/04 02:37:00.002,n,168,5.76,4.32,6.84,17.1,77.8,1005.22,0,0,0,0,0.02697
2021/10/04 02:38:00.000,n,179,3.6,3.24,3.6,17.1,78.5,1005.22,0,0,0,0,0.027847
2021/10/04 02:39:00.000,n,156,3.24,1.44,3.96,17.1,78.9,1005.22,0,0,0,0,0.026131
2021/10/04 02:40:00.009,n,110,1.8,1.08,2.16,17,79.3,1005.22,0,0,0,0,0.026131
2021/10/04 02:41:00.006,n,301,1.8,1.44,2.16,17,79.5,1005.22,0,0,0,0,0.027847
2021/10/04 02:42:00.003,n,294,0.36,0,1.08,17,79.7,1005.22,0,0,0,0,0.029602
2021/10/04 02:43:00.000,n,98,2.52,0.36,4.32,17,80.2,1005.12,0,0,0,0,0.029602
2021/10/04 02:44:00.000,n,214,0.72,0.36,1.08,17,80.5,1005.22,0,0,0,0,0.025253
2021/10/04 02:45:00.000,n,253,1.8,0.72,2.16,17,80.6,1005.12,0,0,0,0,0.025253
2021/10/04 02:46:00.000,n,95,1.08,0.36,1.8,17,81,1005.12,0,0,0,0,0.023499
2021/10/04 02:47:00.005,n,289,3.24,1.8,4.32,17,81.2,1005.12,0,0,0,0,0.025253
2021/10/04 02:48:00.003,n,188,1.08,0.36,1.44,17,81.4,1005.12,0,0,0,0,0.025253
2021/10/04 02:49:00.000,n,212,2.52,1.44,4.68,17,81.7,1005.12,0,0,0,0,0.028763
2021/10/04 02:50:00.013,n,208,1.8,1.44,2.16,17,81.9,1005.12,0,0,0,0,0.026131
2021/10/04 02:51:00.011,n,162,6.12,5.04,6.84,16.9,82.1,1005.12,0,0,0,0,0.022621
2021/10/04 02:52:00.000,n,189,3.6,2.16,4.68,16.9,82.4,1005.12,0,0,0,0,0.024376
2021/10/04 02:53:00.000,n,135,0.36,0,0.72,16.9,82.7,1005.12,0,0,0,0,0.025253
2021/10/04 02:54:00.002,n,211,0.72,0.36,1.08,16.9,82.8,1005.12,0,0,0,0,0.020905
2021/10/04 02:55:00.000,n,240,2.88,2.88,3.6,16.9,83.1,1005.12,0,0,0,0,0.022621
2021/10/04 02:56:00.000,n,229,1.8,1.08,2.16,16.9,83.1,1005.12,0,0,0,0,0.026131
2021/10/04 02:57:00.009,n,97,1.44,1.08,2.16,16.9,83.3,1005.12,0,0,0,0,0.024376
2021/10/04 02:58:00.006,n,200,2.52,2.52,3.24,16.9,83.3,1005.22,0,0,0,0,0.024376
2021/10/04 02:59:00.004,n,260,2.88,2.88,3.96,16.9,83.2,1005.22,0,0,0,0,0.024376
2021/10/04 03:00:00.001,n,283,5.4,5.04,5.76,16.8,83.2,1005.22,0,0,0,0,0.023499
2021/10/04 03:01:00.000,n,263,3.24,2.88,3.96,16.8,83.2,1005.22,0,0,0,0,0.026131
2021/10/04 03:02:00.000,n,263,3.24,2.16,4.32,16.8,83.5,1005.22,0,0,0,0,0.023499
2021/10/04 03:03:00.000,n,286,2.52,2.16,3.24,16.8,83.5,1005.22,0,0,0,0,0.027847
2021/10/04 03:04:00.005,n,272,2.16,1.44,2.88,16.700002,83.4,1005.22,0,0,0,0,0.022621
2021/10/04 03:05:00.003,n,249,3.24,2.88,3.6,16.700002,83.4,1005.22,0,0,0,0,0.021782
2021/10/04 03:06:00.000,n,279,5.04,4.68,6.12,16.6,83.5,1005.22,0,0,0,0,0.025253
2021/10/04 03:07:00.012,n,269,4.68,4.32,5.4,16.6,83.6,1005.22,0,0,0,0,0.02697
2021/10/04 03:08:00.009,n,249,2.52,2.52,2.52,16.6,83.9,1005.22,0,0,0,0,0.026131
2021/10/04 03:09:00.007,n,250,2.52,2.16,3.24,16.6,83.9,1005.22,0,0,0,0,0.029602
2021/10/04 03:10:00.000,n,125,0.36,0,1.08,16.6,84.2,1005.22,0,0,0,0,0.028763
2021/10/04 03:11:00.001,n,274,4.68,3.96,5.4,16.6,84.4,1005.22,0,0,0,0,0.02697
2021/10/04 03:12:00.000,n,271,2.88,2.88,3.24,16.6,84.3,1005.22,0,0,0,0,0.026131
2021/10/04 03:13:00.000,n,267,3.96,3.6,3.96,16.6,84.2,1005.22,0,0,0,0,0.026131
2021/10/04 03:14:00.008,n,275,1.8,1.08,2.16,16.6,84.2,1005.12,0,0,0,0,0.025253
2021/10/04 03:15:00.006,n,291,4.32,3.96,4.68,16.6,84.5,1005.12,0,0,0,0,0.02697
2021/10/04 03:16:00.003,n,300,1.8,0.36,3.24,16.6,84.5,1005.12,0,0,0,0,0.026131
2021/10/04 03:17:00.000,n,257,2.88,2.88,2.88,16.6,84.5,1005.12,0,0,0,0,0.030479
2021/10/04 03:18:00.013,n,251,1.8,0.72,2.16,16.6,84.6,1005.12,0,0,0,0,0.025253
2021/10/04 03:19:00.000,n,274,1.44,1.08,1.44,16.6,84.7,1005.12,0,0,0,0,0.02697
2021/10/04 03:20:00.000,n,207,1.08,0.36,1.44,16.6,84.7,1005.12,0,0,0,0,0.025253
2021/10/04 03:21:00.004,n,280,4.32,4.32,5.04,16.6,84.8,1005.12,0,0,0,0,0.028763
2021/10/04 03:22:00.001,n,269,2.52,1.8,3.24,16.6,84.9,1005.12,0,0,0,0,0.02697
2021/10/04 03:23:00.000,n,308,0.72,0.36,0.72,16.6,85,1005.12,0,0,0,0,0.025253
2021/10/04 03:24:00.000,n,287,1.08,0.72,1.44,16.6,85,1005.12,0,0,0,0,0.032196
2021/10/04 03:25:00.008,n,38,1.44,0.36,2.16,16.700002,85.6,1005.02,0,0,0,0,0.031357
2021/10/04 03:26:00.005,n,248,3.96,2.88,4.68,16.700002,85.2,1005.02,0,0,0,0,0.029602
2021/10/04 03:27:00.002,n,260,4.32,2.88,5.4,16.700002,85.3,1005.02,0,0,0,0,0.029602
2021/10/04 03:28:00.000,n,202,1.8,1.44,2.16,16.700002,85.4,1005.02,0,0,0,0,0.030479
2021/10/04 03:29:00.000,n,269,4.32,3.24,5.4,16.700002,85.2,1005.02,0,0,0,0,0.028763
2021/10/04 03:30:00.000,n,144,3.24,3.24,3.6,16.700002,84.9,1005.02,0,0,0,0,0.028763
2021/10/04 03:31:00.000,n,250,2.52,2.52,3.24,16.6,84.9,1005.02,0,0,0,0,0.02697
2021/10/04 03:32:00.005,n,214,2.16,1.44,2.88,16.6,84.9,1005.02,0,0,0,0,0.033951
2021/10/04 03:33:00.003,n,218,1.08,0.36,2.16,16.6,85,1005.02,0,0,0,0,0.026131
2021/10/04 03:34:00.000,n,100,2.16,0.72,3.6,16.6,85.2,1005.02,0,0,0,0,0.033951
2021/10/04 03:35:00.012,n,282,2.52,1.8,2.88,16.6,85.3,1005.02,0,0,0,0,0.032196
2021/10/04 03:36:00.010,n,107,1.44,1.08,1.44,16.6,85.4,1005.02,0,0,0,0,0.034828
2021/10/04 03:37:00.000,n,150,2.52,1.8,2.88,16.6,85.4,1005.02,0,0,0,0,0.031357
2021/10/04 03:38:00.003,n,164,2.52,1.8,3.24,16.6,85.5,1005.02,0,0,0,0,0.033112
2021/10/04 03:39:00.000,n,156,1.08,0.36,2.16,16.6,85.5,1005.02,0,0,0,0,0.031357
2021/10/04 03:40:00.000,n,274,0.72,0.36,1.44,16.6,85.6,1005.02,0,0,0,0,0.032196
2021/10/04 03:41:00.000,n,162,2.52,0.36,4.32,16.6,85.7,1005.02,0,0,0,0,0.031357
2021/10/04 03:42:00.008,n,261,2.16,1.8,2.52,16.6,85.5,1005.02,0,0,0,0,0.032196
2021/10/04 03:43:00.004,n,143,0.72,0.36,1.08,16.6,85.5,1005.02,0,0,0,0,0.032196
2021/10/04 03:44:00.002,n,281,1.08,0.72,1.44,16.5,85.6,1005.02,0,0,0,0,0.033112
2021/10/04 03:45:00.015,n,245,1.8,1.44,2.52,16.5,85.6,1005.02,0,0,0,0,0.032196
2021/10/04 03:46:00.000,n,202,2.16,1.8,2.52,16.5,85.6,1005.02,0,0,0,0,0.032196
2021/10/04 03:47:00.000,n,172,0.36,0.36,1.08,16.5,85.6,1005.02,0,0,0,0,0.030479
2021/10/04 03:48:00.000,n,217,1.8,1.08,2.52,16.5,85.7,1005.02,0,0,0,0,0.033112
2021/10/04 03:49:00.005,n,170,1.8,1.44,2.16,16.5,85.7,1005.02,0,0,0,0,0.032196
2021/10/04 03:50:00.002,n,167,2.16,1.44,2.52,16.5,85.6,1005.02,0,0,0,0,0.030479
2021/10/04 03:51:00.000,n,249,1.8,1.44,2.16,16.4,85.6,1005.02,0,0,0,0,0.033951
2021/10/04 03:52:00.012,n,242,2.16,1.8,2.52,16.4,85.7,1005.02,0,0,0,0,0.032196
2021/10/04 03:53:00.009,n,141,2.16,1.8,2.16,16.4,85.8,1005.02,0,0,0,0,0.034828
2021/10/04 03:54:00.005,n,149,2.52,2.52,2.88,16.4,85.8,1005.02,0,0,0,0,0.031357
2021/10/04 03:55:00.000,n,232,1.8,1.44,2.52,16.4,85.9,1005.02,0,0,0,0,0.031357
2021/10/04 03:56:00.000,n,264,3.96,3.24,5.04,16.4,86,1005.02,0,0,0,0,0.032196
2021/10/04 03:57:00.000,n,259,3.96,3.6,3.96,16.4,85.9,1005.02,0,0,0,0,0.030479
2021/10/04 03:58:00.000,n,263,3.96,3.6,4.32,16.4,85.9,1005.02,0,0,0,0,0.033112
2021/10/04 03:59:00.009,n,238,2.16,1.44,2.52,16.4,85.8,1005.02,0,0,0,0,0.033951
2021/10/04 04:00:00.006,n,258,4.32,3.96,5.04,16.4,85.9,1005.02,0,0,0,0,0.031357
2021/10/04 04:01:00.004,n,275,3.6,3.6,3.96,16.4,85.9,1005.02,0,0,0,0,0.031357
2021/10/04 04:02:00.003,n,276,3.6,3.24,3.96,16.4,85.9,1005.02,0,0,0,0,0.032196
2021/10/04 04:03:00.000,n,279,2.16,1.8,3.6,16.4,86,1005.02,0,0,0,0,0.029602
2021/10/04 04:04:00.000,n,272,4.32,4.32,4.68,16.4,86,1005.12,0,0,0,0,0.028763
2021/10/04 04:05:00.000,n,262,2.88,2.16,3.6,16.4,86,1005.12,0,0,0,0,0.030479
2021/10/04 04:06:00.000,n,227,0.72,0.36,0.72,16.4,86,1005.02,0,0,0,0,0.027847
2021/10/04 04:07:00.003,n,198,0.72,0.72,1.08,16.4,86,1005.12,0,0,0,0,0.029602
2021/10/04 04:08:00.001,n,266,2.52,2.52,2.88,16.4,86.1,1005.12,0,0,0,0,0.031357
2021/10/04 04:09:00.000,n,271,5.04,4.32,5.4,16.4,86.1,1005.12,0,0,0,0,0.028763
2021/10/04 04:10:00.010,n,256,5.4,5.04,5.76,16.4,86,1005.12,0,0,0,0,0.028763
2021/10/04 04:11:00.008,n,285,3.96,3.6,3.96,16.3,85.9,1005.12,0,0,0,0,0.029602
2021/10/04 04:12:00.005,n,276,3.24,3.24,3.96,16.3,86,1005.12,0,0,0,0,0.028763
2021/10/04 04:13:00.000,n,277,2.52,2.52,2.88,16.3,86.1,1005.12,0,0,0,0,0.027847
2021/10/04 04:14:00.000,n,206,1.08,0.72,1.44,16.3,86.2,1005.12,0,0,0,0,0.031357
2021/10/04 04:15:00.000,n,249,1.08,0.72,1.44,16.3,86.2,1005.12,0,0,0,0,0.028763
2021/10/04 04:16:00.000,n,277,1.8,1.44,2.16,16.3,86.4,1005.12,0,0,0,0,0.030479
2021/10/04 04:17:00.007,n,246,1.8,1.8,2.16,16.3,86.4,1005.12,0,0,0,0,0.031357
2021/10/04 04:18:00.005,n,245,2.52,2.16,3.24,16.3,86.3,1005.12,0,0,0,0,0.030479
2021/10/04 04:19:00.003,n,206,1.44,1.08,1.8,16.3,86.2,1005.12,0,0,0,0,0.027847
2021/10/04 04:20:00.000,n,267,6.12,5.76,6.12,16.3,86.2,1005.12,0,0,0,0,0.031357
2021/10/04 04:21:00.013,n,267,3.6,3.6,3.96,16.3,86.1,1005.22,0,0,0,0,0.030479
2021/10/04 04:22:00.000,n,265,4.68,3.96,5.04,16.3,86.2,1005.22,0,0,0,0,0.031357
2021/10/04 04:23:00.000,n,271,4.68,3.96,5.4,16.3,86.2,1005.22,0,0,0,0,0.027847
2021/10/04 04:24:00.004,n,270,4.68,4.32,5.04,16.3,86.2,1005.22,0,0,0,0,0.029602
2021/10/04 04:25:00.001,n,261,7.2,6.84,7.56,16.3,86,1005.22,0,0,0,0,0.028763
2021/10/04 04:26:00.000,n,257,4.68,4.32,6.12,16.200002,86,1005.22,0,0,0,0,0.029602
2021/10/04 04:27:00.000,n,253,5.76,5.4,6.12,16.200002,86.1,1005.22,0,0,0,0,0.031357
2021/10/04 04:28:00.010,n,230,2.16,1.8,2.88,16.200002,86.1,1005.22,0,0,0,0,0.026131
2021/10/04 04:29:00.007,n,267,5.04,4.68,5.76,16.200002,86.3,1005.22,0,0,0,0,0.029602
2021/10/04 04:30:00.004,n,271,5.4,5.04,5.76,16.200002,86.3,1005.22,0,0,0,0,0.028763
2021/10/04 04:31:00.001,n,255,7.2,6.84,7.92,16.200002,86.3,1005.22,0,0,0,0,0.027847
2021/10/04 04:32:00.000,n,275,1.8,1.44,2.52,16.200002,86.3,1005.22,0,0,0,0,0.026131
2021/10/04 04:33:00.000,n,265,2.88,2.52,2.88,16.200002,86.4,1005.22,0,0,0,0,0.02697
2021/10/04 04:34:00.000,n,269,5.4,4.68,6.12,16.200002,86.5,1005.22,0,0,0,0,0.02697
2021/10/04 04:35:00.005,n,269,1.44,1.08,1.44,16.200002,86.5,1005.22,0,0,0,0,0.02697
2021/10/04 04:36:00.003,n,228,2.16,1.8,2.16,16.200002,86.5,1005.22,0,0,0,0,0.023499
2021/10/04 04:37:00.000,n,217,2.16,1.8,2.16,16.200002,86.5,1005.22,0,0,0,0,0.025253
2021/10/04 04:38:00.013,n,226,0.72,0.72,1.08,16.200002,86.5,1005.22,0,0,0,0,0.026131
2021/10/04 04:39:00.011,n,270,1.08,0.72,1.44,16.200002,86.6,1005.22,0,0,0,0,0.022621
2021/10/04 04:40:00.000,n,257,3.6,3.24,3.6,16.200002,86.6,1005.22,0,0,0,0,0.024376
2021/10/04 04:41:00.000,n,262,3.6,3.24,3.6,16.200002,86.7,1005.22,0,0,0,0,0.025253
2021/10/04 04:42:00.002,n,257,1.44,1.08,1.44,16.200002,86.7,1005.22,0,0,0,0,0.020905
2021/10/04 04:43:00.000,n,200,0.72,0.36,1.8,16.3,86.7,1005.22,0,0,0,0,0.02697
2021/10/04 04:44:00.000,n,270,1.8,1.08,2.16,16.3,86.7,1005.22,0,0,0,0,0.020905
2021/10/04 04:45:00.010,n,264,2.16,1.8,2.88,16.3,86.7,1005.22,0,0,0,0,0.023499
2021/10/04 04:46:00.007,n,263,3.96,3.24,4.32,16.3,86.7,1005.22,0,0,0,0,0.022621
2021/10/04 04:47:00.004,n,266,3.24,2.88,3.96,16.3,86.7,1005.22,0,0,0,0,0.024376
2021/10/04 04:48:00.002,n,255,3.6,3.24,3.96,16.3,86.7,1005.22,0,0,0,0,0.023499
2021/10/04 04:49:00.000,n,251,4.32,3.96,4.68,16.3,86.7,1005.22,0,0,0,0,0.021782
2021/10/04 04:50:00.000,n,232,3.24,2.52,3.6,16.3,86.7,1005.22,0,0,0,0,0.020905
2021/10/04 04:51:00.000,n,269,4.32,3.6,4.68,16.3,86.7,1005.32,0,0,0,0,0.023499
2021/10/04 04:52:00.007,n,277,3.6,3.24,3.96,16.3,86.7,1005.32,0,0,0,0,0.027008
2021/10/04 04:53:00.001,n,272,3.24,3.24,3.6,16.3,86.7,1005.32,0,0,0,0,0.030479
2021/10/04 04:54:00.000,n,260,3.6,3.6,3.96,16.3,86.7,1005.42,0,0,0,0,0.02964